User: anonymous
Location: NJAA Observatory
(40.6819°N, 74.8979°W)
Time: 05:35:43
(UTC-04:00)
Language:

Landsat 5 - Orbit

View from above orbital plane
View from above orbital plane
View from above satellite
View from above satellite

Ground track
Ground track

The orbit data is extracted from the following two-line orbital elements,

1 14780U 84021A   14106.84460253  .00002057  00000-0  20975-3 0  2756
2 14780 098.0574 183.1330 0096457 014.5614 121.0840 14.88443797603499
Epoch (UTC): 16 April 2014 20:16:13
Eccentricity: 0.0096457
inclination: 98.0574°
perigee height: 535 km
apogee height: 670 km
right ascension of ascending node: 183.1330°
argument of perigee: 14.5614°
revolutions per day: 14.88443797
mean anomaly at epoch: 121.0840°
orbit number at epoch: 60349

The dashed part of the orbit path shows where the satellite is in the earth's shadow,  

DLR